Regional Weather Roundup
Issued by NWS Grand Forks, ND

Home | Current Version | Previous Version | Text Only | Print | Product List | Glossary On
Versions: 1 2 3 4 5 6 7 8 9 10 11 12 13 14 15 16 17 18 19 20 21 22 23 24 25 26 27 28 29 30 31 32 33 34 35 36 37 38 39 40 41 42 43 44 45 46 47 48 49 50
000
ASUS43 KFGF 040310
RWRFGF
PRAIRIE TO PINES  WEATHER ROUNDUP
NATIONAL WEATHER SERVICE EASTERN NORTH DAKOTA/GRAND FORKS ND
900 PM CST TUE MAR 03 2015

 **SATELLITE DATA USED TO AUGMENT SKY COVER AT AUTOMATED STATIONS**
 *****  WEATHER ACROSS EASTERN NORTH DAKOTA  *****

CITY           SKY/WX    TMP DP  RH WIND       PRES   REMARKS
GRAND FORKS    MOCLDY     1  -7  68 W9        30.01R WCI -14
GRAND FRKS AFB CLEAR      1  -8  66 NW13      30.00R WCI -17
GRAND FRKS NWS   N/A      1 N/A N/A NW9         N/A  WCI -14
DEVILS LAKE    CLEAR      0 -11  60 W16       29.97S WCI -21
FARGO          CLEAR      4  -7  60 NW17      30.04R WCI -16
WAHPETON ARPT  MOCLDY     5  -4  66 NW21G26   30.06R WCI -16
$$

 ***** WEATHER ACROSS CENTRAL AND WESTERN NORTH DAKOTA  *****

CITY           SKY/WX    TMP DP  RH WIND       PRES   REMARKS
BISMARCK       CLEAR      5  -4  66 NW9       30.06R WCI  -9
MINOT          PTCLDY     0 -10  63 W14       29.98F WCI -19
JAMESTOWN      CLEAR      2  -7  66 NW16G24   30.01R WCI -18
MINOT AFB      CLEAR     -2 -10  69 W13       29.98F WCI -21
GARRISON         N/A     -7 -13  75 W3        30.01F
WILLISTON      LGT SNOW   6   0  76 W7        30.01R WCI  -6
DICKINSON      CLEAR      1  -7  68 W6        29.95S WCI -10
HETTINGER      CLEAR      2  -7  66 NW8       30.00R WCI -12
$$

 *****  OTHER AIRPORT OBSERVATIONS IN OUR AREA  *****

CITY           SKY/WX    TMP DP  RH WIND       PRES   REMARKS
WALHALLA         N/A      0  -9  65 W10       29.97S WCI -17
GRAFTON AIRPOR NOT AVBL
VALLEY CITY AR FAIR       1  -4  78 NW17      30.00S WCI -19
CANDO          FAIR      -2  -9  71 W20       29.97R WCI -25
CAVALIER APRT  FAIR       0  -9  65 NW12      29.98S WCI -18
GWINNER        CLEAR      7  -6  56 NW14      30.06R WCI -10
ROLLA          FAIR      -2 -11  65 W13       29.92S WCI -21
 ***** THE ABOVE OBSERVATIONS ARE NON NWS ARE NOT QUALITY
       CONTROLLED AND MAY MIS-REPORT RAIN FOR SNOW...
$$

  *****  WEATHER ACROSS NORTHERN MINNESOTA  *****

CITY           SKY/WX    TMP DP  RH WIND       PRES   REMARKS
FLAG ISLAND    PTCLDY    -2  -9  71 NW16      29.85R WCI -23
WARROAD        CLOUDY     0  -8  71 W12       29.88R WCI -18
ROSEAU         PTCLDY     0  -9  65 W9        29.91R WCI -16
HALLOCK        NOT AVBL
THF RVR FALLS  PTCLDY     0  -9  65 W13       29.94S WCI -18
BAUDETTE       MOCLDY    -1  -6  79 W12       29.84R WCI -18
WASKISH        PTCLDY     0  -8  71 W12G23    29.87R WCI -18
CROOKSTON      PTCLDY     1  -6  71 NW18      30.01R WCI -19
$$
  *****  WEATHER ACROSS CENTRAL AND WEST MINNESOTA  *****

CITY           SKY/WX    TMP DP  RH WIND       PRES   REMARKS
FOSSTON        MOCLDY    -2 -11  65 W15G21    29.94R WCI -22
BEMIDJI        PTCLDY    -1  -9  69 W17       29.89R WCI -22
PARK RAPIDS    CLOUDY     3  -3  76 W16       29.90R HAZE    WCI -16
ELBOW LAKE     FAIR       2  -5  70 NW15      30.01R WCI -16
WADENA         CLOUDY     1  -4  78 W15       29.94R HAZE    WCI -18
DETROIT LAKES  CLEAR      3  -6  66 NW17G23   29.97R WCI -17
MOORHEAD       CLEAR      3  -2  78 NW15      30.04R WCI -15
FERGUS FALLS   PTCLDY     1  -8  66 NW14      30.06R WCI -17
MORRIS MN      PTCLDY     3  -2  78 NW15      30.03R WCI -15
STAPLES        CLEAR      1  -6  71 W15G21    29.93R WCI -18
$$
  *****  WEATHER ELSEWHERE ACROSS MINNESOTA  *****

CITY           SKY/WX    TMP DP  RH WIND       PRES   REMARKS
DULUTH         CLEAR      7  -4  60 NW21G30   29.78R WCI -13
INTRNTL FALLS  PTCLDY     0  -9  65 W12       29.81R WCI -17
ELY            MOCLDY     3  -2  78 NW9G18    29.74R HAZE    WCI -11
CLOQUET        CLEAR      7  -2  66 W17G30    29.82R WCI -12
WHEATON        CLEAR      3  -6  66 W14       30.08S WCI -15
BRAINERD       CLOUDY     4  -3  73 W13       29.91R WCI -13
HIBBING        CLEAR      3  -9  57 W12G23    29.81R WCI -13
ALEXANDRIA     PTCLDY     3  -5  69 NW18G30   29.98R WCI -17
SAINT CLOUD    CLEAR      7  -2  66 NW17G24   29.96R WCI -12
MINNEAPOLIS    PTCLDY    11   0  61 W18       29.96R WCI  -7
$$

  *****  WEATHER ACROSS SOUTH DAKOTA  *****

CITY           SKY/WX    TMP DP  RH WIND       PRES   REMARKS
SIOUX FALLS    MOCLDY    10   2  69 NW7       30.05R WCI  -1
BROOKINGS      NOT AVBL
WATERTOWN      CLEAR      4  -5  66 NW9       30.01S WCI -10
HURON          CLEAR      4  -3  73 NW10      30.09R WCI -11
SISSETON         N/A      3  -5  69 NW9       30.06R WCI -12
ABERDEEN       CLEAR      5  -4  66 NW5       30.08R WCI  -4
MITCHELL       PTCLDY     8   1  73 NW6       30.10R WCI  -2
PIERRE         PTCLDY    10  -1  61 W9        30.08R WCI  -3
MOBRIDGE       CLEAR      8  -1  66 N5        30.02R WCI   0
RAPID CITY     PTCLDY     8  -2  63 N12       30.02R WCI  -7
$$

  *****  SOME WEATHER IN NEARBY STATES *****

CITY           SKY/WX    TMP DP  RH WIND       PRES   REMARKS
GLASGOW MT     MOCLDY    10  -3  55 NW20      30.06R WCI  -9
GREAT FALLS MT CLEAR     10  -2  58 CALM      30.09R
CHEYENNE WY    CLOUDY     9   4  80 N9        29.84R HAZE    WCI  -4
SCOTTSBLUFF NE CLOUDY    17   9  70 NW13      30.00R WCI   4
OMAHA NE       PTCLDY    20   7  57 N18G25    30.10R WCI   5
DES MOINES IA  MOCLDY    24  14  65 NW18G26   30.03R WCI  10
DAVENPORT IA   CLOUDY    27  20  75 NW24      29.92R WCI  12
CHICAGO IL     CLOUDY    32  25  75 W15       29.83R WCI  22
EAU CLAIRE WI  CLEAR     17   5  59 W14       29.86R WCI   3
LA CROSSE WI   CLEAR     21  11  65 NW16      29.90R WCI   7
$$

  *****  SOME NATIONAL WEATHER *****

CITY           SKY/WX    TMP DP  RH WIND       PRES   REMARKS
LA GUARDIA NY  LGT RAIN  34  31  88 S9        29.94F FOG
RALEIGH NC     DRIZZLE   36  34  92 CALM      30.12F FOG
ATLANTA GA     FOG       50  49  96 E6        30.12R VSB<1/4
NEW ORLEANS LA PTCLDY    70  65  84 SE9       30.01S
OKLAHOMA CITY  CLOUDY    50  40  68 NE5       29.86R
ALBUQUERQUE NM PTCLDY    49  17  28 NW13      29.82R
SALT LAKE CITY MOCLDY    32  26  78 SW3       29.96R
LOS ANGELES CA PTCLDY    57  49  74 W14       29.91R
BOISE ID       CLEAR     36  14  40 N9        30.04R
SEATTLE WA     PTCLDY    43  15  32 N3        30.23R
$$

*** WEATHER ACROSS MANITOBA...SASKATCHEWAN AND ONTARIO ***
                ***ONTARIO***

CITY           SKY/WX    TMP DP  RH WIND       PRES   REMARKS
GERALDTON      FLURRIES   9  -2  61 W15G32    29.43R WCI  -8
THUNDER BAY    PTCLDY    10  -2  56 W22G32    29.65R WCI  -9
SIOUX LOOKOUT  CLEAR     -4 -17  54 NW12G17   29.69R WCI -22
TORONTO        CLOUDY    34  28  80 W21G31    29.58R WCI  22
BIG TROUT LK   LGT SNOW  -2  -6  84 N8G20     29.51R WCI -17
PICKLE LAKE    NOT AVBL
DRYDEN         CLEAR     -4 -13  65 W16       29.72R WCI -25
KENORA         PTCLDY    -6 -15  65 NW10G20   29.80R WCI -23
$$
                *** MANITOBA***

CITY           SKY/WX    TMP DP  RH WIND       PRES   REMARKS
BRANDON        CLEAR     -8 -17  65 W16       29.95F WCI -30
DAUPHIN        LGT SNOW  -6 -11  77 NE9       29.99R WCI -22
ISLAND LAKE    LGT SNOW  -6 -11  77 N13G18    29.75R BLWGSNOWWCI -25
PILOT MOUND      N/A     -4 -11  71 NW18G25     N/A  WCI -26
THE PAS        CLOUDY    -9 -15  77 NW15      30.02R WCI -31
THOMPSON       PTCLDY    -8 -17  65 N14G21    29.99R WCI -28
WINNIPEG       PTCLDY    -9 -17  70 NW9       29.96R WCI -27
LYNN LAKE      CLEAR    -11 -18  70 N12G17    30.07R WCI -31
CHURCHILL      CRYSTALS -13 -18  77 NW14G20   30.07R WCI -35
GILLAM         PTCLDY   -11 -18  70 N16       29.94R WCI -34
$$
                ***SASKATCHEWAN***

CITY           SKY/WX    TMP DP  RH WIND       PRES   REMARKS
ESTEVAN        NOT AVBL
KINDERSLEY     PTCLDY    -4 -11  71 N9        30.11R WCI -20
LLOYDMINSTER   PTCLDY    -6 -17  59 N8        30.15R WCI -21
PRINCE ALBERT  NOT AVBL
REGINA         CLEAR     -8 -13  77 NW18      30.03R WCI -31
YORKTON        CLEAR     -8 -18  59 NW12G17   29.98R WCI -27
N. BATTLEFORD  CLEAR     -8 -17  65 N14       30.18R WCI -28
LA RONGE       PTCLDY   -11 -24  53 NW6       30.19R WCI -25
SASKATOON      CLEAR     -9 -17  70 N12       30.15R WCI -29
SWIFT CURRENT  CLOUDY    -2  -8  78 NW14      30.04S WCI -21
$$
NOTE: THESE ARE AUTOMATED STATIONS WITH LIMITED QUALITY CONTROL
      "FAIR" INDICATES FEW OR NO CLOUDS BELOW 12,000 FEET WITH NO
      SIGNIFICANT WEATHER AND/OR OBSTRUCTIONS TO VISIBILITY.
      SKY/WX - SKY CONDITION AND SIGNIFICANT WEATHER.
      TMP - AIR TEMPERATURE.    DP   - DEWPOINT TEMPERATURE.
      RH  - RELATIVE HUMIDITY.  PRES - PRESSURE.
      HX  - HEAT INDEX.         WCI  - WIND CHILL INDEX.
$


USA.gov is the U.S. government's official web portal to all federal, state and local government web resources and services.